Tracking 19625 objects as of 26-May-2019
HD Live streaming from Space Station
objects crossing your sky now
Watch Starlink satellites crossing your sky!

COSMOS 917 DEB

Track COSMOS 917 DEB now!


NORAD ID: 32965
Int'l Code: 1977-047N
Perigee: 5,848.3 km
Apogee: 34,705.3 km
Inclination: 67.3 °
Period: 721.5 minutes
Semi major axis: 26647 km
RCS: 0.1259 m2 (medium)
Launch date: June 16, 1977
Source: Commonwealth of Independent States (former USSR) (CIS)
Launch site: PLESETSK MISSILE AND SPACE COMPLEX (PKMTR)

Note: This is SATELLITE DEBRIS
aabbcc
Your satellite tracking list
Your tracking list is empty




NASA's NSSDC Master Catalog

Two Line Element Set (TLE):
1 32965U 77047N   11184.76073214 +.00000316 +00000-0 +10000-3 0  9999
2 32965 067.2853 103.9699 5414506 087.9369 329.9385 01.99577087035541
Source of the keplerian elements: AFSPC